TimeMST,TemperatureF,Dew PointF,Humidity,Sea Level PressureIn,VisibilityMPH,Wind Direction,Wind SpeedMPH,Gust SpeedMPH,PrecipitationIn,Events,Conditions,WindDirDegrees,DateUTC
12:53 AM,19.9,14.0,78,30.35,10.0,ENE,6.9,-,N/A,,Clear,60,2012-03-03 07:53:00
1:53 AM,19.0,12.9,77,30.36,10.0,SSE,3.5,-,N/A,,Clear,150,2012-03-03 08:53:00
2:53 AM,19.0,10.9,71,30.37,10.0,SSE,3.5,-,N/A,,Clear,160,2012-03-03 09:53:00
3:53 AM,18.0,10.0,71,30.38,10.0,SE,3.5,-,N/A,,Clear,130,2012-03-03 10:53:00
4:53 AM,17.1,9.0,71,30.40,10.0,ESE,8.1,-,N/A,,Clear,120,2012-03-03 11:53:00
5:53 AM,15.1,9.0,77,30.44,10.0,ESE,8.1,-,N/A,,Clear,120,2012-03-03 12:53:00
6:53 AM,16.0,9.0,74,30.47,10.0,ESE,10.4,-,N/A,,Clear,120,2012-03-03 13:53:00
7:53 AM,19.9,9.0,62,30.48,10.0,ESE,13.8,-,N/A,,Clear,120,2012-03-03 14:53:00
8:53 AM,23.0,10.0,58,30.50,10.0,SE,12.7,-,N/A,,Clear,130,2012-03-03 15:53:00
9:53 AM,26.1,12.0,55,30.52,10.0,ESE,8.1,-,N/A,,Clear,120,2012-03-03 16:53:00
10:53 AM,28.0,12.0,51,30.50,10.0,Variable,3.5,-,N/A,,Clear,0,2012-03-03 17:53:00
11:53 AM,33.1,12.0,42,30.49,10.0,Calm,Calm,-,N/A,,Clear,0,2012-03-03 18:53:00
12:53 PM,35.1,14.0,42,30.47,10.0,NW,3.5,-,N/A,,Clear,310,2012-03-03 19:53:00
1:53 PM,36.0,12.9,39,30.45,10.0,Variable,3.5,-,N/A,,Clear,0,2012-03-03 20:53:00
2:53 PM,37.9,15.1,39,30.43,10.0,Calm,Calm,-,N/A,,Clear,0,2012-03-03 21:53:00
3:53 PM,39.0,14.0,36,30.42,10.0,Calm,Calm,-,N/A,,Clear,0,2012-03-03 22:53:00
4:53 PM,37.9,18.0,45,30.43,10.0,NNW,6.9,-,N/A,,Clear,330,2012-03-03 23:53:00
5:53 PM,37.0,18.0,46,30.45,10.0,NW,3.5,-,N/A,,Clear,320,2012-03-04 00:53:00
6:53 PM,33.1,23.0,66,30.46,10.0,North,3.5,-,N/A,,Clear,350,2012-03-04 01:53:00
7:53 PM,30.9,21.9,69,30.45,10.0,ENE,3.5,-,N/A,,Clear,60,2012-03-04 02:53:00
8:53 PM,30.9,21.0,67,30.46,10.0,Calm,Calm,-,N/A,,Clear,0,2012-03-04 03:53:00
9:53 PM,28.0,21.0,75,30.45,10.0,ENE,4.6,-,N/A,,Clear,70,2012-03-04 04:53:00
10:53 PM,28.9,19.9,69,30.45,10.0,East,3.5,-,N/A,,Clear,80,2012-03-04 05:53:00
11:53 PM,28.0,19.0,69,30.45,10.0,East,3.5,-,N/A,,Clear,100,2012-03-04 06:53:00